Back to catalog

STARLINK-1131

AliveCommunicationsVLEO
NORAD 45047·PAYLOAD·🇺🇸 United States

Launched Jan 29, 2020 from Cape Canaveral Space Force Station

Loading…

Next Passes (next 24 hours)

TLE

FreshSource: CelesTrak SupGP

Epoch: Sep 14, 2026, 13:07 UTC

1 45047C 20006D   26257.54701389  .00054982  00000+0  51989-3 0  2576
2 45047  53.1481  95.9294 0003922 131.4630  96.7667 15.66298492    10

Track STARLINK-1131 in real time with AllMySat

Download on the App Store